Weather History for Casper, WY

Change the Weather History Date:

Sunday, May 25, 2014

  Actual Average Record
Temperature  
Mean Temperature 59 °F 55 °F  
Max Temperature 72 °F 70 °F 85 °F (1969)
Min Temperature 46 °F 40 °F 29 °F (2002)
Degree Days  
Heating Degree Days 6 10  
Month to date heating degree days 358 346  
Since 1 July heating degree days 7694 7388  
Cooling Degree Days 0 0  
Month to date cooling degree days 0 0  
Year to date cooling degree days 0 0  
Growing Degree Days 10 (Base 50)    
Moisture  
Dew Point 48 °F    
Average Humidity 66    
Maximum Humidity 93    
Minimum Humidity 38    
Precipitation  
Precipitation 0.00 in 0.06 in 0.78 in (1962)
Month to date precipitation 0.49 1.64  
Year to date precipitation 4.76 4.83  
Snow  
Snow 0.00 in 0.00 in - ()
Month to date snowfall 0.9 2.8  
Since 1 July snowfall 91.6 74.7  
Snow Depth 0.00 in    
Sea Level Pressure  
Sea Level Pressure 29.93 in    
Wind  
Wind Speed 8 mph (NNE)    
Max Wind Speed 17 mph    
Max Gust Speed 24 mph    
Visibility 10 miles    
Events Thunderstorm    
T = Trace of Precipitation, MM = Missing Value Source: NWS Daily Summary

Daily Weather History Graph

Daily Weather History Graph

Search for Another Location

Airport:

Trip Planner

Search our weather history database for the weather conditions in past years. The results will help you decide how hot, cold, wet, or windy it might be!

Date:

Astronomy

May. 25, 2014 Rise Set
Actual Time 5:34 AM MDT 8:32 PM MDT
Civil Twilight 5:00 AM MDT 9:05 PM MDT
Nautical Twilight 4:17 AM MDT 9:48 PM MDT
Astronomical Twilight 3:27 AM MDT 10:39 PM MDT
Moon 3:45 AM MDT 5:31 PM MDT
Length of Visible Light 16h 05m
Length of Day
14h 58m
Waning Crescent, 10% of the Moon is Illuminated
May 25
Waning Crescent
May 28
New
Jun 5
First Quarter
Jun 12
Full
Jun 19
Last Quarter

Hourly Weather History & Observations

Time (MDT) Temp. Dew Point Humidity Pressure Visibility Wind Dir Wind Speed Gust Speed Precip Events Conditions
12:53 AM 53.1 °F 48.9 °F 86% 29.88 in 10.0 mi WNW 6.9 mph - N/A   Clear
1:53 AM 54.0 °F 50.0 °F 86% 29.87 in 10.0 mi West 3.5 mph - N/A   Scattered Clouds
2:53 AM 50.0 °F 48.2 °F 94% 30.01 in 10.0 mi Calm Calm - N/A   Scattered Clouds
3:53 AM 48.0 °F 46.0 °F 93% 29.86 in 10.0 mi NNW 10.4 mph - N/A   Clear
4:22 AM 51.1 °F 48.9 °F 92% 30.01 in 10.0 mi North 11.5 mph - N/A   Mostly Cloudy
4:53 AM 52.0 °F 48.9 °F 89% 29.86 in 10.0 mi North 6.9 mph - N/A   Overcast
5:53 AM 51.8 °F 48.2 °F 88% 30.02 in 10.0 mi South 6.9 mph - N/A   Overcast
6:53 AM 51.1 °F 48.0 °F 89% 29.91 in 10.0 mi Calm Calm - N/A   Clear
7:53 AM 55.0 °F 48.0 °F 77% 29.94 in 10.0 mi NE 3.5 mph - N/A   Partly Cloudy
8:53 AM 60.8 °F 48.2 °F 63% 30.09 in 10.0 mi ENE 10.4 mph - N/A   Scattered Clouds
9:53 AM 61.0 °F 48.9 °F 64% 29.94 in 10.0 mi ESE 10.4 mph - N/A   Overcast
10:53 AM 64.9 °F 48.9 °F 56% 29.93 in 10.0 mi NNE 6.9 mph - N/A   Mostly Cloudy
11:53 AM 68.0 °F 48.9 °F 50% 29.91 in 10.0 mi NNE 13.8 mph 17.3 mph N/A   Mostly Cloudy
12:53 PM 66.9 °F 48.0 °F 51% 29.91 in 10.0 mi NE 11.5 mph - N/A   Mostly Cloudy
1:53 PM 66.9 °F 48.0 °F 51% 29.88 in 10.0 mi North 15.0 mph 21.9 mph N/A   Overcast
2:03 PM 69.1 °F 48.0 °F 47% 30.03 in 10.0 mi NNE 13.8 mph - N/A Thunderstorm Overcast
2:53 PM 68.0 °F 46.9 °F 47% 29.89 in 10.0 mi NNE 11.5 mph - N/A Thunderstorm Mostly Cloudy
3:20 PM 66.0 °F 46.9 °F 50% 30.02 in 10.0 mi North - - N/A   Overcast
3:53 PM 64.0 °F 48.9 °F 58% 29.91 in 10.0 mi SSE 6.9 mph - N/A   Overcast
4:53 PM 69.1 °F 46.9 °F 45% 29.86 in 10.0 mi NE 11.5 mph - N/A   Mostly Cloudy
5:53 PM 72.0 °F 45.0 °F 38% 29.85 in 10.0 mi NNE 15.0 mph 24.2 mph N/A   Scattered Clouds
6:53 PM 70.0 °F 45.0 °F 41% 29.87 in 10.0 mi NNE 11.5 mph - N/A   Scattered Clouds
7:53 PM 64.9 °F 46.9 °F 52% 29.91 in 10.0 mi ESE 9.2 mph - N/A   Overcast
8:53 PM 61.0 °F 48.9 °F 64% 29.92 in 10.0 mi South 3.5 mph - N/A   Scattered Clouds
9:53 PM 55.0 °F 46.9 °F 74% 29.96 in 10.0 mi WSW 6.9 mph - N/A   Partly Cloudy
10:53 PM 51.1 °F 45.0 °F 80% 29.96 in 10.0 mi West 5.8 mph - N/A   Clear
11:53 PM 50.0 °F 45.0 °F 83% 29.95 in 10.0 mi WSW 6.9 mph - N/A   Clear